Peachtree City, GA

12:03 PM EST on February 25, 2017 (GMT -0500)
Peachtree City-Falcon

Weather History for KFFC - March, 2014

Change the Weather History Date:

Tuesday, March 25, 2014

  Actual Average Record
Temperature  
Mean Temperature 44 °F 55 °F  
Max Temperature 53 °F 69 °F 87 °F (2007)
Min Temperature 35 °F 42 °F 24 °F (2008)
Degree Days  
Heating Degree Days 21 10  
Month to date heating degree days 344 315  
Since 1 July heating degree days 2874 2697  
Cooling Degree Days 0 0  
Month to date cooling degree days 0 0  
Year to date cooling degree days 0 0  
Moisture  
Dew Point 27 °F    
Average Humidity 59    
Maximum Humidity 89    
Minimum Humidity 28    
Precipitation  
Precipitation 0.00 in 0.15 in 0.23 in (1999)
Month to date precipitation 3.52 4.21  
Year to date precipitation 9.86 13.31  
Sea Level Pressure  
Sea Level Pressure 30.02 in    
Wind  
Wind Speed 13 mph (NW)    
Max Wind Speed 30 mph    
Max Gust Speed 43 mph    
Visibility 10 miles    
Events      
T = Trace of Precipitation, MM = Missing Value Source: NWS Daily Summary

Daily Weather History Graph

Daily Weather History Graph

Search for Another Location

Airport or City:

Trip Planner

Search our weather history database for the weather conditions in past years. The results will help you decide how hot, cold, wet, or windy it might be!

Date:

Astronomy

Mar. 25, 2014 Rise Set
Actual Time 7:35 AM EDT 7:53 PM EDT
Civil Twilight 7:10 AM EDT 8:18 PM EDT
Nautical Twilight 6:41 AM EDT 8:47 PM EDT
Astronomical Twilight 6:12 AM EDT 9:17 PM EDT
Moon 3:41 AM EDT 2:37 PM EDT
Length of Visible Light 13h 07m
Length of Day
12h 18m
Waning Crescent, 32% of the Moon is Illuminated
Mar 25
Waning Crescent
Mar 30
New
Apr 7
First Quarter
Apr 15
Full
Apr 22
Last Quarter

Hourly Weather History & Observations

Time (EDT) Temp. Windchill Dew Point Humidity Pressure Visibility Wind Dir Wind Speed Gust Speed Precip Events Conditions
12:53 AM 43.0 °F - 39.0 °F 86% 29.98 in 10.0 mi Calm Calm - N/A   Overcast
1:53 AM 43.0 °F - 39.0 °F 86% 29.96 in 9.0 mi Calm Calm - N/A   Mostly Cloudy
2:53 AM 46.0 °F - 41.0 °F 83% 29.94 in 9.0 mi Calm Calm - N/A   Overcast
3:53 AM 46.0 °F - 39.9 °F 79% 29.92 in 9.0 mi Calm Calm - N/A   Scattered Clouds
4:53 AM 45.0 °F - 41.0 °F 86% 29.91 in 8.0 mi Calm Calm - N/A   Overcast
5:53 AM 45.0 °F - 39.9 °F 82% 29.90 in 8.0 mi Calm Calm - N/A   Overcast
6:53 AM 45.0 °F 41.8 °F 39.0 °F 80% 29.92 in 10.0 mi WNW 5.8 mph - N/A   Partly Cloudy
7:53 AM 42.1 °F 39.2 °F 35.1 °F 76% 29.94 in 10.0 mi WNW 4.6 mph - N/A   Clear
8:53 AM 46.0 °F 41.4 °F 30.0 °F 54% 29.96 in 10.0 mi NW 9.2 mph - N/A   Clear
9:53 AM 48.9 °F - 25.0 °F 39% 29.98 in 10.0 mi WNW 15.0 mph - N/A   Clear
10:53 AM 51.1 °F - 19.9 °F 29% 29.99 in 10.0 mi NW 19.6 mph 28.8 mph N/A   Clear
11:53 AM 52.0 °F - 21.0 °F 30% 30.00 in 10.0 mi NW 25.3 mph 35.7 mph N/A   Clear
12:53 PM 52.0 °F - 23.0 °F 32% 30.01 in 10.0 mi NNW 20.7 mph 33.4 mph N/A   Mostly Cloudy
1:53 PM 52.0 °F - 21.9 °F 31% 30.01 in 10.0 mi NW 20.7 mph 31.1 mph N/A   Mostly Cloudy
2:53 PM 50.0 °F - 21.9 °F 33% 30.02 in 10.0 mi NW 24.2 mph 36.8 mph N/A   Mostly Cloudy
3:53 PM 48.0 °F - 19.0 °F 32% 30.03 in 10.0 mi WNW 19.6 mph 42.6 mph N/A   Mostly Cloudy
4:53 PM 48.0 °F - 19.0 °F 32% 30.06 in 10.0 mi WNW 19.6 mph 29.9 mph N/A   Mostly Cloudy
5:53 PM 48.0 °F - 18.0 °F 30% 30.07 in 10.0 mi NW 24.2 mph 36.8 mph N/A   Mostly Cloudy
6:53 PM 44.1 °F 35.7 °F 19.9 °F 38% 30.10 in 10.0 mi NW 20.7 mph 31.1 mph N/A   Mostly Cloudy
7:53 PM 42.1 °F 33.6 °F 19.9 °F 41% 30.13 in 10.0 mi NW 18.4 mph 32.2 mph N/A   Partly Cloudy
8:53 PM 39.9 °F 30.8 °F 19.0 °F 43% 30.15 in 10.0 mi NW 18.4 mph 25.3 mph N/A   Clear
9:53 PM 39.0 °F 30.6 °F 18.0 °F 43% 30.18 in 10.0 mi NNW 15.0 mph 21.9 mph N/A   Clear
10:53 PM 37.9 °F 30.5 °F 18.0 °F 45% 30.20 in 10.0 mi NW 11.5 mph - N/A   Clear
11:53 PM 36.0 °F 29.6 °F 19.0 °F 50% 30.21 in 10.0 mi NW 8.1 mph - N/A   Clear